FW2611 Weather Reports


Display with metric or nautical units.
time (UTC)temp
F
wind
direction
speed
MPH
gust
MPH
rain 1hr
in
rain 24hr
in
rain mn
in
humidity
%
barometer
mb
20260903063019 75 86 3.0 7.0 0.00 0.02 0.00 91 1017.0
20260903061518 75 84 0.0 5.0 0.00 0.02 0.00 91 1017.4
20260903060020 75 94 0.0 3.0 0.00 0.02 0.00 91 1017.6
20260903054516 75 94 1.0 6.0 0.00 0.02 0.00 91 1017.5
20260903053003 75 88 2.0 6.0 0.00 0.02 0.00 91 1017.4
20260903051506 75 74 1.0 5.0 0.00 0.02 0.00 91 1017.7
20260903050021 75 67 1.0 5.0 0.00 0.02 0.00 91 1018.0
20260903044518 75 92 1.0 4.0 0.00 0.02 0.00 91 1018.2
20260903043010 75 87 0.0 3.0 0.00 0.02 0.00 91 1018.3
20260903041515 75 87 0.0 3.0 0.00 0.02 0.00 91 1018.2
20260903040009 75 86 0.0 3.0 0.00 0.02 0.00 90 1018.1
20260903034510 75 81 2.0 4.0 0.00 0.02 0.02 90 1018.4
20260903033013 75 60 2.0 6.0 0.00 0.02 0.02 90 1018.5
20260903031514 75 97 3.0 9.0 0.00 0.02 0.02 90 1018.3
20260903030018 75 92 3.0 9.0 0.00 0.02 0.02 90 1018.0
20260903024511 75 103 4.0 11.0 0.00 0.02 0.02 89 1017.9
20260903023014 75 74 5.0 11.0 0.00 0.02 0.02 89 1018.2
20260903021518 75 59 1.0 10.0 0.00 0.19 0.02 89 1018.4
20260903020020 75 92 4.0 8.0 0.00 0.63 0.02 88 1018.6
20260903014519 75 88 4.0 10.0 0.00 0.63 0.02 88 1018.4
20260903013008 75 98 1.0 8.0 0.00 0.63 0.02 88 1018.5
20260903011516 75 92 4.0 10.0 0.00 0.63 0.02 88 1018.8
20260903010020 75 94 4.0 9.0 0.00 0.63 0.02 87 1018.9
20260903004523 75 74 3.0 11.0 0.00 0.63 0.02 87 1018.9
20260903003023 75 94 7.0 14.0 0.00 0.63 0.02 87 1018.5
20260903001510 75 80 7.0 12.0 0.00 0.63 0.02 87 1018.2
20260903000022 75 126 6.0 12.0 0.00 0.63 0.02 87 1018.5
20260902234524 75 96 6.0 10.0 0.00 0.63 0.02 86 1018.3
20260902233023 75 76 3.0 10.0 0.00 0.63 0.02 86 1018.4
20260902231520 75 61 2.0 12.0 0.00 0.63 0.02 86 1018.3
20260902230014 75 56 5.0 9.0 0.00 0.63 0.02 86 1018.4
20260902224517 75 34 3.0 12.0 0.00 0.63 0.02 86 1018.6
20260902223023 75 86 5.0 11.0 0.00 0.63 0.02 85 1018.5
20260902221504 75 86 6.0 11.0 0.00 0.63 0.02 85 1018.7
20260902220010 75 68 7.0 12.0 0.00 0.63 0.02 85 1018.9
20260902214516 75 94 5.0 14.0 0.00 0.63 0.02 85 1019.0
20260902213022 75 92 7.0 13.0 0.00 0.63 0.02 84 1018.9
20260902211523 75 94 6.0 12.0 0.00 0.63 0.02 85 1019.1
20260902210008 75 91 8.0 13.0 0.00 0.63 0.02 85 1018.9
20260902204515 75 82 6.0 13.0 0.00 0.63 0.02 86 1018.9
20260902203020 75 92 10.0 18.0 0.01 0.63 0.02 85 1018.6
20260902201523 75 84 8.0 12.0 0.02 0.63 0.02 85 1018.9
20260902200030 75 98 6.0 13.0 0.02 0.63 0.02 85 1019.2
20260902194511 76 107 8.0 13.0 0.02 0.63 0.02 84 1019.2
20260902193016 77 111 3.0 10.0 0.01 0.62 0.01 83 1019.1
20260902191522 78 105 6.0 12.0 0.00 0.61 0.00 79 1019.2
20260902190042 79 94 6.0 11.0 0.00 0.61 0.00 75 1019.8
20260902184530 79 48 3.0 10.0 0.00 0.61 0.00 74 1020.5
20260902183013 81 55 5.0 11.0 0.00 0.61 0.00 71 1020.6
20260902181516 82 54 5.0 12.0 0.00 0.61 0.00 71 1020.8
20260902180033 83 82 6.0 13.0 0.00 0.61 0.00 69 1020.7
20260902174527 83 32 6.0 13.0 0.00 0.61 0.00 70 1020.6
20260902173037 82 94 9.0 16.0 0.00 0.61 0.00 71 1020.2
20260902171540 83 89 9.0 17.0 0.00 0.61 0.00 69 1020.2
20260902170021 83 61 6.0 14.0 0.00 0.61 0.00 71 1020.1
20260902164503 82 82 7.0 15.0 0.00 0.61 0.00 72 1020.1
20260902163008 82 69 10.0 16.0 0.00 0.61 0.00 73 1020.1
20260902161524 82 63 5.0 14.0 0.00 0.61 0.00 72 1020.1
20260902160015 82 80 7.0 15.0 0.00 0.61 0.00 73 1020.0
20260902154532 81 105 8.0 15.0 0.00 0.61 0.00 73 1020.0
20260902153004 81 80 10.0 16.0 0.00 0.61 0.00 72 1020.1
20260902151509 80 84 9.0 15.0 0.00 0.61 0.00 73 1020.2
20260902150012 80 67 10.0 16.0 0.00 0.61 0.00 74 1020.3
20260902144523 80 99 9.0 15.0 0.00 0.61 0.00 76 1020.2
20260902143030 79 76 11.0 17.0 0.00 0.61 0.00 78 1020.1
20260902141504 78 88 4.0 13.0 0.00 0.61 0.00 81 1020.1
20260902140009 77 47 8.0 14.0 0.00 0.61 0.00 82 1019.9
20260902134521 78 89 8.0 15.0 0.00 0.61 0.00 82 1019.6
20260902133028 77 69 7.0 17.0 0.00 0.61 0.00 82 1019.4
20260902131527 77 86 8.0 18.0 0.00 0.61 0.00 84 1019.2
20260902130010 76 95 8.0 16.0 0.00 0.61 0.00 85 1019.0
20260902124511 76 33 7.0 15.0 0.00 0.61 0.00 85 1019.4
20260902123017 75 70 9.0 16.0 0.00 0.61 0.00 86 1019.3
20260902121524 75 67 6.0 14.0 0.00 0.61 0.00 87 1019.2
20260902120028 75 67 8.0 18.0 0.00 0.61 0.00 88 1019.2
20260902114510 75 96 11.0 17.0 0.00 0.61 0.00 88 1019.1
20260902113018 75 79 10.0 16.0 0.00 0.61 0.00 89 1018.9
20260902111524 74 78 8.0 15.0 0.00 0.61 0.00 89 1018.8
20260902110028 74 65 7.0 16.0 0.00 0.61 0.00 90 1018.6
20260902104534 74 86 5.0 14.0 0.00 0.61 0.00 90 1018.5
20260902103012 74 49 7.0 11.0 0.00 0.61 0.00 91 1018.4
20260902101520 74 51 5.0 12.0 0.00 0.61 0.00 91 1018.3
20260902100023 74 74 4.0 14.0 0.00 0.61 0.00 92 1018.3
20260902094529 74 32 4.0 10.0 0.00 0.61 0.00 92 1018.3
20260902093030 74 82 4.0 10.0 0.00 0.61 0.00 93 1018.0
20260902091516 73 55 7.0 11.0 0.00 0.61 0.00 93 1018.0
20260902090025 73 33 2.0 7.0 0.00 0.61 0.00 93 1018.0
20260902084530 73 9 4.0 9.0 0.00 0.61 0.00 93 1017.9
20260902083028 72 309 3.0 9.0 0.00 0.61 0.00 93 1018.0
20260902081530 72 320 5.0 9.0 0.00 0.61 0.00 93 1017.8
20260902080018 72 338 3.0 10.0 0.00 0.61 0.00 92 1017.6
20260902074525 72 40 3.0 10.0 0.00 0.61 0.00 92 1017.5
20260902073027 72 347 3.0 9.0 0.00 0.61 0.00 92 1017.4
20260902071530 72 39 4.0 10.0 0.00 0.61 0.00 92 1017.4
20260902070031 72 13 4.0 9.0 0.00 0.61 0.00 91 1017.4
20260902064524 72 9 6.0 11.0 0.00 0.61 0.00 90 1017.4